DW9080 Weather Reports


time (UTC)temp
C
wind
direction
speed
KPH
gust
KPH
rain 1hr
cm
rain 24hr
cm
rain mn
cm
humidity
%
barometer
mb
20260506034012 26 236 0.0 6.4 0.00 0.00 0.00 27 1002.1
20260506033511 26 218 0.0 8.0 0.00 0.00 0.00 27 1002.0
20260506033100 26 212 0.0 9.7 0.00 0.00 0.00 27 1001.9
20260506032554 26 212 0.0 9.7 0.00 0.00 0.00 27 1001.8
20260506032054 26 240 0.0 14.5 0.00 0.00 0.00 27 1001.8
20260506031557 26 207 6.4 14.5 0.00 0.00 0.00 27 1001.7
20260506031056 26 236 0.0 1.6 0.00 0.00 0.00 27 1001.6
20260506030557 26 243 0.0 1.6 0.00 0.00 0.00 27 1001.5
20260506030035 26 222 0.0 9.7 0.00 0.00 0.00 27 1001.4
20260506025535 26 174 4.8 16.1 0.00 0.00 0.00 28 1001.3
20260506025035 26 228 8.0 16.1 0.00 0.00 0.00 28 1001.3
20260506024540 26 195 4.8 9.7 0.00 0.00 0.00 28 1001.2
20260506024035 26 201 0.0 1.6 0.00 0.00 0.00 28 1001.2
20260506023536 26 232 0.0 1.6 0.00 0.00 0.00 28 1001.1
20260506023016 26 235 0.0 1.6 0.00 0.00 0.00 28 1001.1
20260506022517 26 243 0.0 4.8 0.00 0.00 0.00 28 1000.9
20260506022015 26 160 0.0 8.0 0.00 0.00 0.00 28 1000.7
20260506021516 26 200 0.0 1.6 0.00 0.00 0.00 28 1000.6
20260506021016 27 228 0.0 1.6 0.00 0.00 0.00 28 1000.4
20260506020515 27 246 0.0 1.6 0.00 0.00 0.00 27 1000.3
20260506020059 27 233 0.0 1.6 0.00 0.00 0.00 27 1000.3
20260506015559 27 227 0.0 1.6 0.00 0.00 0.00 27 1000.1
20260506015059 27 207 0.0 1.6 0.00 0.00 0.00 27 1000.1
20260506014559 27 240 0.0 1.6 0.00 0.00 0.00 27 1000.0
20260506014100 27 235 0.0 1.6 0.00 0.00 0.00 27 1000.0
20260506013557 27 226 0.0 1.6 0.00 0.00 0.00 27 999.9
20260506013041 27 256 0.0 1.6 0.00 0.00 0.00 27 999.9
20260506012540 27 233 0.0 1.6 0.00 0.00 0.00 26 999.7
20260506012040 27 235 0.0 1.6 0.00 0.00 0.00 26 999.6
20260506011542 28 264 0.0 1.6 0.00 0.00 0.00 26 999.6
20260506011040 28 259 0.0 1.6 0.00 0.00 0.00 26 999.5
20260506010541 28 236 0.0 0.0 0.00 0.00 0.00 26 999.5
20260506010026 28 243 0.0 1.6 0.00 0.00 0.00 26 999.5
20260506005520 28 226 0.0 1.6 0.00 0.00 0.00 25 999.5
20260506005022 28 248 0.0 1.6 0.00 0.00 0.00 25 999.4
20260506004534 28 256 0.0 1.6 0.00 0.00 0.00 25 999.4
20260506004021 29 231 0.0 1.6 0.00 0.00 0.00 25 999.3
20260506003520 29 239 0.0 0.0 0.00 0.00 0.00 24 999.3
20260506003003 30 249 0.0 0.0 0.00 0.00 0.00 24 999.3
20260506002502 30 246 0.0 1.6 0.00 0.00 0.00 24 999.3
20260506002002 30 270 0.0 1.6 0.00 0.00 0.00 24 999.1
20260506001502 30 249 0.0 1.6 0.00 0.00 0.00 23 999.0
20260506001003 30 253 0.0 9.7 0.00 0.00 0.00 23 999.1
20260506000503 30 242 3.2 9.7 0.00 0.00 0.00 23 999.0
20260505235546 30 236 1.6 11.3 0.00 0.00 0.00 23 999.1
20260505235046 30 246 0.0 11.3 0.00 0.00 0.00 23 999.0
20260505234549 30 228 0.0 14.5 0.00 0.00 0.00 22 999.1
20260505234043 30 255 4.8 14.5 0.00 0.00 0.00 22 999.1
20260505233546 30 246 0.0 12.9 0.00 0.00 0.00 22 999.1
20260505233047 30 255 1.6 12.9 0.00 0.00 0.00 23 999.1
20260505232524 30 239 0.0 3.2 0.00 0.00 0.00 23 999.3
20260505232025 30 243 0.0 3.2 0.00 0.00 0.00 22 999.2
20260505231524 30 243 0.0 1.6 0.00 0.00 0.00 23 999.2
20260505231023 30 239 0.0 9.7 0.00 0.00 0.00 21 999.3
20260505230523 30 245 0.0 24.1 0.00 0.00 0.00 22 999.2
20260505230027 31 233 6.4 24.1 0.00 0.00 0.00 22 999.3
20260505225505 31 258 8.0 17.7 0.00 0.00 0.00 21 999.3
20260505225005 31 246 0.0 14.5 0.00 0.00 0.00 21 999.3
20260505224506 31 270 8.0 17.7 0.00 0.00 0.00 20 999.4
20260505224007 31 214 11.3 19.3 0.00 0.00 0.00 21 999.5
20260505223505 31 249 0.0 9.7 0.00 0.00 0.00 22 999.4
20260505223007 30 226 1.6 22.5 0.00 0.00 0.00 23 999.4
20260505222544 31 255 14.5 22.5 0.00 0.00 0.00 22 999.6
20260505222044 31 243 8.0 14.5 0.00 0.00 0.00 23 999.6
20260505221550 31 197 3.2 19.3 0.00 0.00 0.00 22 999.7
20260505221048 31 190 9.7 20.9 0.00 0.00 0.00 22 999.6
20260505220547 30 246 6.4 20.9 0.00 0.00 0.00 22 999.6
20260505220044 30 249 6.4 22.5 0.00 0.00 0.00 24 999.7
20260505215526 31 248 14.5 22.5 0.00 0.00 0.00 23 999.8
20260505215023 31 211 9.7 20.9 0.00 0.00 0.00 24 999.9
20260505214539 31 246 0.0 19.3 0.00 0.00 0.00 25 999.9
20260505214020 31 255 3.2 19.3 0.00 0.00 0.00 25 999.9
20260505213520 31 258 6.4 19.3 0.00 0.00 0.00 25 1000.0
20260505213033 31 253 1.6 20.9 0.00 0.00 0.00 26 1000.0
20260505212503 30 246 11.3 20.9 0.00 0.00 0.00 26 1000.0
20260505212001 30 214 8.0 24.1 0.00 0.00 0.00 25 1000.1
20260505211624 31 258 8.0 22.5 0.00 0.00 0.00 25 1000.2
20260505211100 31 246 3.2 12.9 0.00 0.00 0.00 26 1000.3
20260505210558 31 246 4.8 20.9 0.00 0.00 0.00 27 1000.3
20260505210106 30 252 11.3 24.1 0.00 0.00 0.00 26 1000.5
20260505205539 30 163 12.9 24.1 0.00 0.00 0.00 25 1000.5
20260505205039 31 253 0.0 3.2 0.00 0.00 0.00 25 1000.7
20260505204539 30 211 0.0 19.3 0.00 0.00 0.00 27 1000.7
20260505204037 31 253 8.0 22.5 0.00 0.00 0.00 27 1000.8
20260505203536 30 243 6.4 22.5 0.00 0.00 0.00 26 1000.9
20260505203043 30 224 8.0 25.7 0.00 0.00 0.00 25 1001.0
20260505202517 30 244 9.7 24.1 0.00 0.00 0.00 26 1001.1
20260505202016 30 266 3.2 17.7 0.00 0.00 0.00 27 1001.1
20260505201518 30 252 8.0 17.7 0.00 0.00 0.00 27 1001.2
20260505201014 30 270 0.0 9.7 0.00 0.00 0.00 28 1001.3
20260505200514 30 262 0.0 9.7 0.00 0.00 0.00 27 1001.5
20260505200012 30 248 0.0 1.6 0.00 0.00 0.00 29 1001.6
20260505195553 30 256 0.0 20.9 0.00 0.00 0.00 30 1001.6
20260505195054 30 260 3.2 20.9 0.00 0.00 0.00 30 1001.7
20260505194551 30 233 8.0 19.3 0.00 0.00 0.00 30 1001.9
20260505194053 29 262 1.6 19.3 0.00 0.00 0.00 30 1001.9
20260505193552 29 238 3.2 25.7 0.00 0.00 0.00 31 1002.1
20260505193051 29 259 0.0 20.9 0.00 0.00 0.00 32 1002.1
20260505192530 29 253 12.9 20.9 0.00 0.00 0.00 31 1002.2
20260505192031 29 246 3.2 20.9 0.00 0.00 0.00 32 1002.3
20260505191528 29 252 0.0 9.7 0.00 0.00 0.00 31 1002.4
20260505191027 29 239 1.6 24.1 0.00 0.00 0.00 32 1002.5
20260505190525 29 243 16.1 24.1 0.00 0.00 0.00 31 1002.6
20260505190031 29 257 8.0 19.3 0.00 0.00 0.00 31 1002.6
20260505185515 29 224 4.8 19.3 0.00 0.00 0.00 32 1002.7
20260505185011 28 210 0.0 17.7 0.00 0.00 0.00 32 1002.8
20260505184511 28 224 3.2 17.7 0.00 0.00 0.00 33 1002.9
20260505184009 28 259 4.8 22.5 0.00 0.00 0.00 34 1003.0
20260505183508 28 237 8.0 22.5 0.00 0.00 0.00 34 1003.1
20260505183012 28 238 0.0 17.7 0.00 0.00 0.00 34 1003.2
20260505182505 27 259 8.0 25.7 0.00 0.00 0.00 34 1003.3
20260505182003 27 229 12.9 20.9 0.00 0.00 0.00 34 1003.4
20260505181502 27 264 3.2 24.1 0.00 0.00 0.00 34 1003.4
20260505181004 27 253 8.0 24.1 0.00 0.00 0.00 35 1003.6
20260505180600 27 228 0.0 25.7 0.00 0.00 0.00 35 1003.7
20260505180059 27 257 12.9 25.7 0.00 0.00 0.00 35 1003.8
20260505180000 27 246 11.3 25.7 0.00 0.00 0.00 35 1003.9
20260505175559 27 218 0.0 25.7 0.00 0.00 0.00 35 1003.9
20260505175058 27 260 14.5 25.7 0.00 0.00 0.00 35 1004.1
20260505174558 27 231 12.9 25.7 0.00 0.00 0.00 35 1004.1
20260505174056 26 252 9.7 22.5 0.00 0.00 0.00 35 1004.2
20260505173556 26 261 0.0 19.3 0.00 0.00 0.00 36 1004.2
20260505173055 26 246 3.2 19.3 0.00 0.00 0.00 37 1004.1
20260505172554 26 208 9.7 19.3 0.00 0.00 0.00 36 1004.3
20260505172055 26 264 11.3 24.1 0.00 0.00 0.00 37 1004.5
20260505171553 26 266 16.1 24.1 0.00 0.00 0.00 37 1004.5
20260505171055 26 235 3.2 24.1 0.00 0.00 0.00 37 1004.4
20260505170554 26 264 8.0 24.1 0.00 0.00 0.00 38 1004.5
20260505170057 26 251 11.3 24.1 0.00 0.00 0.00 40 1004.6
20260505165548 25 250 8.0 20.9 0.00 0.00 0.00 40 1004.8
20260505165030 25 270 3.2 20.9 0.00 0.00 0.00 40 1004.9
20260505164535 25 236 6.4 24.1 0.00 0.00 0.00 41 1004.9
20260505164129 25 218 16.1 24.1 0.00 0.00 0.00 41 1004.9
20260505163528 25 248 0.0 3.2 0.00 0.00 0.00 41 1005.0
20260505163030 25 223 0.0 20.9 0.00 0.00 0.00 42 1005.0
20260505162526 25 207 8.0 20.9 0.00 0.00 0.00 43 1005.0
20260505162010 24 250 6.4 24.1 0.00 0.00 0.00 43 1005.0
20260505161507 24 246 12.9 24.1 0.00 0.00 0.00 43 1005.2
20260505161006 24 248 8.0 16.1 0.00 0.00 0.00 44 1005.0
20260505160505 23 205 0.0 20.9 0.00 0.00 0.00 44 1005.1
20260505153103 22 240 9.7 20.9 0.00 0.00 0.00 45 1005.3
20260505152548 22 243 11.3 20.9 0.00 0.00 0.00 46 1005.4
20260505152048 22 246 0.0 1.6 0.00 0.00 0.00 46 1005.3
20260505151546 22 236 0.0 3.2 0.00 0.00 0.00 47 1005.4
20260505151045 22 257 0.0 3.2 0.00 0.00 0.00 47 1005.4
20260505150546 22 256 0.0 1.6 0.00 0.00 0.00 48 1005.4
20260505140535 20 243 0.0 1.6 0.00 0.00 0.00 50 1005.1
20260505125026 -17 0.0 0.0 0.00 0.00 0.00 1004.2
20260505124524 -17 0.0 0.0 0.00 0.00 0.00 1004.1
20260505124022 -17 0.0 0.0 0.00 0.00 0.00 1004.1
20260505123521 -17 0.0 0.0 0.00 0.00 0.00 1004.2
20260505123031 -17 0.0 0.0 0.00 0.00 0.00 1004.0
20260505122518 -17 0.0 0.0 0.00 0.00 0.00 1004.0
20260505122102 -17 0.0 0.0 0.00 0.00 0.00 1003.9
20260505121600 -17 0.0 0.0 0.00 0.00 0.00 1003.8
20260505121100 -17 0.0 0.0 0.00 0.00 0.00 1003.9
20260505120556 -17 0.0 0.0 0.00 0.00 0.00 1003.9
20260505120057 -17 0.0 0.0 0.00 0.00 0.00 1003.8
20260505115554 -17 0.0 0.0 0.00 0.00 0.00 1003.9
20260505115036 -17 0.0 0.0 0.00 0.00 0.00 1003.9
20260505114546 -17 0.0 0.0 0.00 0.00 0.00 1003.9
20260505114034 -17 0.0 0.0 0.00 0.00 0.00 1003.9
20260505113532 -17 0.0 0.0 0.00 0.00 0.00 1003.9
20260505113031 -17 0.0 0.0 0.00 0.00 0.00 1003.7
20260505112529 -17 0.0 0.0 0.00 0.00 0.00 1003.7
20260505112010 -17 0.0 0.0 0.00 0.00 0.00 1003.8
20260505111515 -17 0.0 0.0 0.00 0.00 0.00 1003.8
20260505111008 -17 0.0 0.0 0.00 0.00 0.00 1003.9
20260505110505 -17 0.0 0.0 0.00 0.00 0.00 1003.9
20260505102038 19 225 9.7 19.3 0.00 0.00 0.00 44 1003.9
20260505101520 19 252 8.0 14.5 0.00 0.00 0.00 44 1003.9
20260505101020 20 233 8.0 16.1 0.00 0.00 0.00 44 1003.8
20260505100519 20 226 9.7 16.1 0.00 0.00 0.00 45 1003.8
20260505100026 20 253 0.0 19.3 0.00 0.00 0.00 45 1003.8
20260505095519 20 252 8.0 20.9 0.00 0.00 0.00 45 1003.7
20260505095019 20 226 12.9 22.5 0.00 0.00 0.00 46 1003.8
20260505094501 20 250 11.3 20.9 0.00 0.00 0.00 46 1003.8
20260505094101 20 243 6.4 17.7 0.00 0.00 0.00 45 1003.8
20260505093605 20 219 0.0 17.7 0.00 0.00 0.00 45 1003.9
20260505093002 20 259 9.7 19.3 0.00 0.00 0.00 45 1003.8
20260505092604 20 219 6.4 17.7 0.00 0.00 0.00 46 1003.8
20260505092059 20 224 0.0 1.6 0.00 0.00 0.00 46 1003.8
20260505091547 20 240 0.0 1.6 0.00 0.00 0.00 45 1003.8
20260505091043 20 246 0.0 16.1 0.00 0.00 0.00 45 1003.8
20260505090542 20 226 9.7 17.7 0.00 0.00 0.00 44 1003.7
20260505090051 20 207 9.7 20.9 0.00 0.00 0.00 44 1003.7
20260505085542 20 233 12.9 17.7 0.00 0.00 0.00 44 1003.7
20260505085042 20 240 9.7 24.1 0.00 0.00 0.00 44 1003.7
20260505084525 21 177 9.7 24.1 0.00 0.00 0.00 43 1003.7
20260505084023 21 257 9.7 20.9 0.00 0.00 0.00 43 1003.7
20260505083523 21 224 11.3 22.5 0.00 0.00 0.00 43 1003.7
20260505083026 21 250 11.3 22.5 0.00 0.00 0.00 43 1003.7
20260505082527 21 221 6.4 24.1 0.00 0.00 0.00 42 1003.7
20260505082023 21 248 16.1 24.1 0.00 0.00 0.00 42 1003.8
20260505081506 21 231 12.9 22.5 0.00 0.00 0.00 42 1003.9
20260505081006 21 233 12.9 19.3 0.00 0.00 0.00 42 1003.8
20260505080505 21 238 8.0 19.3 0.00 0.00 0.00 42 1004.0
20260505080005 21 191 8.0 24.1 0.00 0.00 0.00 41 1003.9
20260505075506 21 204 8.0 25.7 0.00 0.00 0.00 41 1004.0
20260505075005 21 256 8.0 25.7 0.00 0.00 0.00 40 1004.1
20260505074546 22 246 12.9 25.7 0.00 0.00 0.00 40 1004.0
20260505074049 22 243 14.5 24.1 0.00 0.00 0.00 40 1004.2
20260505073548 22 209 9.7 24.1 0.00 0.00 0.00 39 1004.3
20260505073056 22 219 12.9 24.1 0.00 0.00 0.00 39 1004.2
20260505072546 22 233 8.0 24.1 0.00 0.00 0.00 39 1004.2
20260505072045 22 256 12.9 20.9 0.00 0.00 0.00 38 1004.3
20260505071529 22 232 11.3 20.9 0.00 0.00 0.00 38 1004.4
20260505071029 22 225 14.5 22.5 0.00 0.00 0.00 38 1004.5
20260505070530 22 238 11.3 22.5 0.00 0.00 0.00 38 1004.6
20260505070028 22 232 8.0 24.1 0.00 0.00 0.00 37 1004.6
20260505065527 22 240 11.3 24.1 0.00 0.00 0.00 37 1004.7
20260505065027 22 228 12.9 24.1 0.00 0.00 0.00 36 1004.7
20260505064509 22 218 12.9 27.4 0.00 0.00 0.00 36 1004.7
20260505064012 22 222 12.9 27.4 0.00 0.00 0.00 36 1004.8
20260505063515 22 219 12.9 27.4 0.00 0.00 0.00 35 1004.8
20260505063009 22 243 14.5 30.6 0.00 0.00 0.00 35 1004.8
20260505062508 23 236 11.3 30.6 0.00 0.00 0.00 35 1004.9
20260505062009 23 236 12.9 27.4 0.00 0.00 0.00 34 1005.1
20260505061550 23 248 14.5 27.4 0.00 0.00 0.00 34 1005.0
20260505061050 23 208 12.9 24.1 0.00 0.00 0.00 34 1005.0
20260505060550 23 224 12.9 22.5 0.00 0.00 0.00 33 1005.0
20260505060050 23 232 9.7 19.3 0.00 0.00 0.00 33 1005.1
20260505055550 23 265 8.0 25.7 0.00 0.00 0.00 32 1005.3
20260505055053 23 246 11.3 25.7 0.00 0.00 0.00 31 1005.2
20260505054533 23 227 11.3 20.9 0.00 0.00 0.00 30 1005.3
20260505054032 23 201 9.7 19.3 0.00 0.00 0.00 29 1005.3
20260505053531 23 243 11.3 17.7 0.00 0.00 0.00 28 1005.4
20260505053032 23 243 8.0 16.1 0.00 0.00 0.00 26 1005.4
20260505052535 24 225 8.0 17.7 0.00 0.00 0.00 26 1005.4
20260505052031 24 236 8.0 17.7 0.00 0.00 0.00 26 1005.5
20260505051520 24 225 0.0 1.6 0.00 0.00 0.00 26 1005.5
20260505051013 24 212 0.0 1.6 0.00 0.00 0.00 26 1005.6
20260505050516 24 232 0.0 1.6 0.00 0.00 0.00 26 1005.6
20260505041549 25 225 0.0 1.6 0.00 0.00 0.00 23 1005.0
20260505041036 25 225 0.0 1.6 0.00 0.00 0.00 23 1005.0
20260505040539 25 226 0.0 1.6 0.00 0.00 0.00 22 1004.9
20260505040043 25 219 0.0 1.6 0.00 0.00 0.00 22 1004.9
20260505035535 25 226 0.0 1.6 0.00 0.00 0.00 22 1004.8
20260505035035 25 243 0.0 1.6 0.00 0.00 0.00 23 1004.8
20260505034517 25 243 0.0 1.6 0.00 0.00 0.00 23 1004.7